Galileo — SX2040 — position and weather

sailwx.info

Track history (hours):
 
Tides and Currents Weather Stations Pressure Air Temp Water Temp Dewpoint Dewpoint Depression Visibility Wind Speed Wind Dir Waves Ship Positions

Galileo

Last reported at 2014-Sep-27 16:25 UTC. Time now 2014-Sep-30 15:50 UTC.
Position N 37°54' E 023°02'.

Length 40 m; draft 3 m.

Type: Passenger vessel. MMSI: 239299000.

Date/timePositionNaut miles runAvg speedWind from/ knotsBaromVisibWave heightAir tempDewpointWater temp
2014-Sep-27 16:25N 37°54' E 023°02'12 9.4
2014-Sep-27 15:05N 37°52' E 023°18'5 9.4
2014-Sep-27 14:33N 37°51' E 023°24'9 8.5
2014-Sep-27 13:33N 37°52' E 023°35'5 5.1
2014-Sep-27 12:33N 37°56' E 023°39'0 0.0
2014-Sep-27 11:33N 37°56' E 023°39'0 0.0
2014-Sep-27 10:33N 37°56' E 023°39'0 0.0
2014-Sep-27 09:33N 37°56' E 023°39'0 0.0
2014-Sep-27 08:33N 37°56' E 023°39'0 0.0
2014-Sep-27 07:33N 37°56' E 023°39'0 0.0
2014-Sep-27 06:34N 37°56' E 023°39'0 0.0
2014-Sep-27 05:34N 37°56' E 023°39'0 0.0
2014-Sep-27 04:34N 37°56' E 023°39'0 0.0
2014-Sep-27 03:34N 37°56' E 023°39'0 0.0
2014-Sep-27 02:34N 37°56' E 023°39'0 0.0
2014-Sep-27 01:33N 37°56' E 023°39'0 0.0
2014-Sep-27 00:34N 37°56' E 023°39'0 0.0
2014-Sep-26 23:33N 37°56' E 023°39'0 0.0
2014-Sep-26 22:34N 37°56' E 023°39'0 0.0
2014-Sep-26 21:34N 37°56' E 023°39'0 0.0
2014-Sep-26 20:34N 37°56' E 023°39'0 0.0
2014-Sep-26 19:33N 37°56' E 023°39'0 0.0
2014-Sep-26 18:33N 37°56' E 023°39'0 0.0
2014-Sep-26 17:33N 37°56' E 023°39'0 0.0
2014-Sep-26 16:33N 37°56' E 023°39'0 0.0
2014-Sep-26 15:33N 37°56' E 023°39'0 0.0
2014-Sep-26 14:33N 37°56' E 023°39'0 0.0
2014-Sep-26 13:33N 37°56' E 023°39'4 3.6
2014-Sep-26 12:33N 37°53' E 023°38'9 9.0
2014-Sep-26 11:33N 37°44' E 023°34'15 3.4
2014-Sep-26 07:10N 37°30' E 023°27'78 1.5
2014-Sep-24 04:07N 36°59' E 024°57'610.1
2014-Sep-24 03:33N 37°03' E 025°02'6 5.8
2014-Sep-24 02:30N 37°05' E 025°09'0 0.0
2014-Sep-24 01:33N 37°05' E 025°09'0 0.0
2014-Sep-24 00:27N 37°05' E 025°09'0 0.0
2014-Sep-23 23:19N 37°05' E 025°09'0 0.0
2014-Sep-23 22:26N 37°05' E 025°09'0 0.0
2014-Sep-23 21:31N 37°05' E 025°09'0 0.0
2014-Sep-23 20:30N 37°05' E 025°09'0 0.0
2014-Sep-23 19:33N 37°05' E 025°09'0 0.0
2014-Sep-23 18:33N 37°05' E 025°09'0 0.0
2014-Sep-23 17:32N 37°05' E 025°09'0 0.0
2014-Sep-23 16:17N 37°05' E 025°09'0 0.0
2014-Sep-23 15:33N 37°05' E 025°09'0 0.0
2014-Sep-23 14:31N 37°05' E 025°09'0 0.0
2014-Sep-23 13:31N 37°05' E 025°09'0 0.0
2014-Sep-23 12:32N 37°05' E 025°09'0 0.0
2014-Sep-23 11:33N 37°05' E 025°09'0 0.0
2014-Sep-23 10:32N 37°05' E 025°09'0 0.0
2014-Sep-23 09:31N 37°05' E 025°09'0 0.0
2014-Sep-23 08:33N 37°05' E 025°09'0 0.0
2014-Sep-23 07:32N 37°05' E 025°09'1 1.1
2014-Sep-23 06:33N 37°05' E 025°08'9 9.0
2014-Sep-23 05:32N 37°14' E 025°12'9 9.1
2014-Sep-23 04:32N 37°22' E 025°17'6 6.3
2014-Sep-23 03:33N 37°28' E 025°20'0 0.0
2014-Sep-23 02:32N 37°28' E 025°20'0 0.0
2014-Sep-23 01:26N 37°28' E 025°20'0 0.0
2014-Sep-23 00:33N 37°28' E 025°20'0 0.0
2014-Sep-22 23:31N 37°28' E 025°20'0 0.0
2014-Sep-22 22:32N 37°28' E 025°20'0 0.0
2014-Sep-22 21:31N 37°28' E 025°20'0 0.0
2014-Sep-22 20:28N 37°28' E 025°20'0 0.0
2014-Sep-22 19:28N 37°28' E 025°20'0 0.0
2014-Sep-22 16:29N 37°28' E 025°20'0 0.0
2014-Sep-22 15:27N 37°28' E 025°20'0 0.0
2014-Sep-22 14:34N 37°28' E 025°20'0 0.0
2014-Sep-22 13:33N 37°28' E 025°20'0 0.0
2014-Sep-22 12:33N 37°28' E 025°20'0 0.0
2014-Sep-22 11:33N 37°28' E 025°20'0 0.0
2014-Sep-22 10:34N 37°28' E 025°20'0 0.0
2014-Sep-22 09:33N 37°28' E 025°20'0 0.0
2014-Sep-22 08:33N 37°28' E 025°20'0 0.0
2014-Sep-22 07:33N 37°28' E 025°20'0 0.0
2014-Sep-22 06:30N 37°28' E 025°20'2 2.0
2014-Sep-22 05:33N 37°28' E 025°17'9 9.0
2014-Sep-22 04:32N 37°27' E 025°06'7 7.4
2014-Sep-22 03:33N 37°27' E 024°57'0 0.0
2014-Sep-22 02:29N 37°27' E 024°57'0 0.0
2014-Sep-22 01:32N 37°27' E 024°57'0 0.0
2014-Sep-22 00:11N 37°27' E 024°57'0 0.0
2014-Sep-21 23:33N 37°27' E 024°57'0 0.0
2014-Sep-21 22:33N 37°27' E 024°57'0 0.0
2014-Sep-21 21:29N 37°27' E 024°57'0 0.0
2014-Sep-21 20:29N 37°27' E 024°57'0 0.0
2014-Sep-21 19:32N 37°27' E 024°57'0 0.0
2014-Sep-21 18:29N 37°27' E 024°57'0 0.0
2014-Sep-21 17:32N 37°27' E 024°57'0 0.0
2014-Sep-21 16:32N 37°27' E 024°57'0 0.0
2014-Sep-21 15:32N 37°27' E 024°57'0 0.0
2014-Sep-21 14:30N 37°27' E 024°57'0 0.0
2014-Sep-21 13:33N 37°27' E 024°57'0 0.0
2014-Sep-21 12:31N 37°27' E 024°57'0 0.0
2014-Sep-21 11:33N 37°27' E 024°57'0 0.0
2014-Sep-21 10:23N 37°27' E 024°57'2 2.1
2014-Sep-21 09:28N 37°25' E 024°59'0 0.0
2014-Sep-21 08:28N 37°25' E 024°59'0 0.0
2014-Sep-21 07:29N 37°25' E 024°59'62 7.8
2014-Sep-20 23:32N 37°46' E 023°45'3 3.1
2014-Sep-20 22:33N 37°49' E 023°46'0 0.0
2014-Sep-20 21:33N 37°49' E 023°46'0 0.0
2014-Sep-20 20:33N 37°49' E 023°46'0 0.0
2014-Sep-20 19:30N 37°49' E 023°46'0 0.0
2014-Sep-20 18:33N 37°49' E 023°46'0 0.0
2014-Sep-20 17:30N 37°49' E 023°46'0 0.0
2014-Sep-20 16:31N 37°49' E 023°46'0 0.0
2014-Sep-20 15:34N 37°49' E 023°46'0 0.2
2014-Sep-20 14:33N 37°49' E 023°46'8 8.5
2014-Sep-20 13:34N 37°55' E 023°39'1 0.8
2014-Sep-20 12:34N 37°56' E 023°39'1 1.0
2014-Sep-20 11:34N 37°55' E 023°39'1 1.0
2014-Sep-20 10:34N 37°56' E 023°39'0 0.0
2014-Sep-20 09:34N 37°56' E 023°39'0 0.0
2014-Sep-20 08:34N 37°56' E 023°39'0 0.0
2014-Sep-20 07:34N 37°56' E 023°39'0 0.0
2014-Sep-20 06:33N 37°56' E 023°39'3 3.0
2014-Sep-20 05:34N 37°53' E 023°41'11 9.6
2014-Sep-20 04:26N 37°44' E 023°47'59 8.5
2014-Sep-19 21:32N 37°22' E 024°55'5 4.5
2014-Sep-19 20:29N 37°26' E 024°57'0 0.0
2014-Sep-19 19:32N 37°26' E 024°57'0 0.0
2014-Sep-19 18:32N 37°26' E 024°57'0 0.0
2014-Sep-19 17:31N 37°26' E 024°57'0 0.0
2014-Sep-19 16:29N 37°26' E 024°57'0 0.0
2014-Sep-19 15:33N 37°26' E 024°57'0 0.0
2014-Sep-19 14:30N 37°26' E 024°57'0 0.0
2014-Sep-19 13:30N 37°26' E 024°57'0 0.0
2014-Sep-19 12:32N 37°26' E 024°57'0 0.0
2014-Sep-19 11:32N 37°26' E 024°57'0 0.0
2014-Sep-19 10:30N 37°26' E 024°57'0 0.0
2014-Sep-19 09:32N 37°26' E 024°57'0 0.0
2014-Sep-19 08:33N 37°26' E 024°57'0 0.0
2014-Sep-19 07:33N 37°26' E 024°57'0 0.0
2014-Sep-19 06:31N 37°26' E 024°57'0 0.0
2014-Sep-19 05:33N 37°26' E 024°57'0 0.0
2014-Sep-19 04:31N 37°26' E 024°57'0 0.0
2014-Sep-19 03:33N 37°26' E 024°57'0 0.0
2014-Sep-19 02:33N 37°26' E 024°57'0 0.0
2014-Sep-19 01:33N 37°26' E 024°57'0 0.0
2014-Sep-19 00:31N 37°26' E 024°57'0 0.0
2014-Sep-18 23:30N 37°26' E 024°57'0 0.0
2014-Sep-18 22:30N 37°26' E 024°57'0 0.0
2014-Sep-18 21:32N 37°26' E 024°57'0 0.4
2014-Sep-18 20:30N 37°26' E 024°57'0 0.4
2014-Sep-18 19:32N 37°26' E 024°57'0 0.0
2014-Sep-18 18:33N 37°26' E 024°57'0 0.0
2014-Sep-18 17:31N 37°26' E 024°57'0 0.0
2014-Sep-18 16:33N 37°26' E 024°57'0 0.0
2014-Sep-18 15:29N 37°26' E 024°57'0 0.0
2014-Sep-18 14:33N 37°26' E 024°57'0 0.0
2014-Sep-18 13:32N 37°26' E 024°57'0 0.0
2014-Sep-18 12:33N 37°26' E 024°57'0 0.0
2014-Sep-18 11:33N 37°26' E 024°57'0 0.0
2014-Sep-18 10:33N 37°26' E 024°57'0 0.0
2014-Sep-18 09:31N 37°26' E 024°57'0 0.0
2014-Sep-18 08:30N 37°26' E 024°57'0 0.0
2014-Sep-18 07:33N 37°26' E 024°57'0 0.0
2014-Sep-18 06:30N 37°26' E 024°57'0 0.0
2014-Sep-18 05:24N 37°26' E 024°57'0 0.0
2014-Sep-18 04:33N 37°26' E 024°57'0 0.0
2014-Sep-18 03:33N 37°26' E 024°57'0 0.0
2014-Sep-18 02:33N 37°26' E 024°57'0 0.0
2014-Sep-18 01:31N 37°26' E 024°57'0 0.0
2014-Sep-18 00:33N 37°26' E 024°57'0 0.0
2014-Sep-17 23:33N 37°26' E 024°57'0 0.0
2014-Sep-17 22:33N 37°26' E 024°57'0 0.0
2014-Sep-17 21:33N 37°26' E 024°57'0 0.0
2014-Sep-17 20:19N 37°26' E 024°57'0 0.0
2014-Sep-17 19:23N 37°26' E 024°57'0 0.0
2014-Sep-17 18:34N 37°26' E 024°57'0 0.0
2014-Sep-17 17:31N 37°26' E 024°57'0 0.0
2014-Sep-17 16:33N 37°26' E 024°57'  
Track history (hours):
 
Tides and Currents Weather Stations Pressure Air Temp Water Temp Dewpoint Dewpoint Depression Visibility Wind Speed Wind Dir Waves Ship Positions

Galileo

Last reported at 2014-Sep-27 16:25 UTC. Time now 2014-Sep-30 15:50 UTC.
Position N 37°54' E 023°02'.

Length 40 m; draft 3 m.

Type: Passenger vessel. MMSI: 239299000.

Date/timePositionNaut miles runAvg speedWind from/ knotsBaromVisibWave heightAir tempDewpointWater temp
2014-Sep-27 16:25N 37°54' E 023°02'12 9.4
2014-Sep-27 15:05N 37°52' E 023°18'5 9.4
2014-Sep-27 14:33N 37°51' E 023°24'9 8.5
2014-Sep-27 13:33N 37°52' E 023°35'5 5.1
2014-Sep-27 12:33N 37°56' E 023°39'0 0.0
2014-Sep-27 11:33N 37°56' E 023°39'0 0.0
2014-Sep-27 10:33N 37°56' E 023°39'0 0.0
2014-Sep-27 09:33N 37°56' E 023°39'0 0.0
2014-Sep-27 08:33N 37°56' E 023°39'0 0.0
2014-Sep-27 07:33N 37°56' E 023°39'0 0.0
2014-Sep-27 06:34N 37°56' E 023°39'0 0.0
2014-Sep-27 05:34N 37°56' E 023°39'0 0.0
2014-Sep-27 04:34N 37°56' E 023°39'0 0.0
2014-Sep-27 03:34N 37°56' E 023°39'0 0.0
2014-Sep-27 02:34N 37°56' E 023°39'0 0.0
2014-Sep-27 01:33N 37°56' E 023°39'0 0.0
2014-Sep-27 00:34N 37°56' E 023°39'0 0.0
2014-Sep-26 23:33N 37°56' E 023°39'0 0.0
2014-Sep-26 22:34N 37°56' E 023°39'0 0.0
2014-Sep-26 21:34N 37°56' E 023°39'0 0.0
2014-Sep-26 20:34N 37°56' E 023°39'0 0.0
2014-Sep-26 19:33N 37°56' E 023°39'0 0.0
2014-Sep-26 18:33N 37°56' E 023°39'0 0.0
2014-Sep-26 17:33N 37°56' E 023°39'0 0.0
2014-Sep-26 16:33N 37°56' E 023°39'0 0.0
2014-Sep-26 15:33N 37°56' E 023°39'0 0.0
2014-Sep-26 14:33N 37°56' E 023°39'0 0.0
2014-Sep-26 13:33N 37°56' E 023°39'4 3.6
2014-Sep-26 12:33N 37°53' E 023°38'9 9.0
2014-Sep-26 11:33N 37°44' E 023°34'15 3.4
2014-Sep-26 07:10N 37°30' E 023°27'78 1.5
2014-Sep-24 04:07N 36°59' E 024°57'610.1
2014-Sep-24 03:33N 37°03' E 025°02'6 5.8
2014-Sep-24 02:30N 37°05' E 025°09'0 0.0
2014-Sep-24 01:33N 37°05' E 025°09'0 0.0
2014-Sep-24 00:27N 37°05' E 025°09'0 0.0
2014-Sep-23 23:19N 37°05' E 025°09'0 0.0
2014-Sep-23 22:26N 37°05' E 025°09'0 0.0
2014-Sep-23 21:31N 37°05' E 025°09'0 0.0
2014-Sep-23 20:30N 37°05' E 025°09'0 0.0
2014-Sep-23 19:33N 37°05' E 025°09'0 0.0
2014-Sep-23 18:33N 37°05' E 025°09'0 0.0
2014-Sep-23 17:32N 37°05' E 025°09'0 0.0
2014-Sep-23 16:17N 37°05' E 025°09'0 0.0
2014-Sep-23 15:33N 37°05' E 025°09'0 0.0
2014-Sep-23 14:31N 37°05' E 025°09'0 0.0
2014-Sep-23 13:31N 37°05' E 025°09'0 0.0
2014-Sep-23 12:32N 37°05' E 025°09'0 0.0
2014-Sep-23 11:33N 37°05' E 025°09'0 0.0
2014-Sep-23 10:32N 37°05' E 025°09'0 0.0
2014-Sep-23 09:31N 37°05' E 025°09'0 0.0
2014-Sep-23 08:33N 37°05' E 025°09'0 0.0
2014-Sep-23 07:32N 37°05' E 025°09'1 1.1
2014-Sep-23 06:33N 37°05' E 025°08'9 9.0
2014-Sep-23 05:32N 37°14' E 025°12'9 9.1
2014-Sep-23 04:32N 37°22' E 025°17'6 6.3
2014-Sep-23 03:33N 37°28' E 025°20'0 0.0
2014-Sep-23 02:32N 37°28' E 025°20'0 0.0
2014-Sep-23 01:26N 37°28' E 025°20'0 0.0
2014-Sep-23 00:33N 37°28' E 025°20'0 0.0
2014-Sep-22 23:31N 37°28' E 025°20'0 0.0
2014-Sep-22 22:32N 37°28' E 025°20'0 0.0
2014-Sep-22 21:31N 37°28' E 025°20'0 0.0
2014-Sep-22 20:28N 37°28' E 025°20'0 0.0
2014-Sep-22 19:28N 37°28' E 025°20'0 0.0
2014-Sep-22 16:29N 37°28' E 025°20'0 0.0
2014-Sep-22 15:27N 37°28' E 025°20'0 0.0
2014-Sep-22 14:34N 37°28' E 025°20'0 0.0
2014-Sep-22 13:33N 37°28' E 025°20'0 0.0
2014-Sep-22 12:33N 37°28' E 025°20'0 0.0
2014-Sep-22 11:33N 37°28' E 025°20'0 0.0
2014-Sep-22 10:34N 37°28' E 025°20'0 0.0
2014-Sep-22 09:33N 37°28' E 025°20'0 0.0
2014-Sep-22 08:33N 37°28' E 025°20'0 0.0
2014-Sep-22 07:33N 37°28' E 025°20'0 0.0
2014-Sep-22 06:30N 37°28' E 025°20'2 2.0
2014-Sep-22 05:33N 37°28' E 025°17'9 9.0
2014-Sep-22 04:32N 37°27' E 025°06'7 7.4
2014-Sep-22 03:33N 37°27' E 024°57'0 0.0
2014-Sep-22 02:29N 37°27' E 024°57'0 0.0
2014-Sep-22 01:32N 37°27' E 024°57'0 0.0
2014-Sep-22 00:11N 37°27' E 024°57'0 0.0
2014-Sep-21 23:33N 37°27' E 024°57'0 0.0
2014-Sep-21 22:33N 37°27' E 024°57'0 0.0
2014-Sep-21 21:29N 37°27' E 024°57'0 0.0
2014-Sep-21 20:29N 37°27' E 024°57'0 0.0
2014-Sep-21 19:32N 37°27' E 024°57'0 0.0
2014-Sep-21 18:29N 37°27' E 024°57'0 0.0
2014-Sep-21 17:32N 37°27' E 024°57'0 0.0
2014-Sep-21 16:32N 37°27' E 024°57'0 0.0
2014-Sep-21 15:32N 37°27' E 024°57'0 0.0
2014-Sep-21 14:30N 37°27' E 024°57'0 0.0
2014-Sep-21 13:33N 37°27' E 024°57'0 0.0
2014-Sep-21 12:31N 37°27' E 024°57'0 0.0
2014-Sep-21 11:33N 37°27' E 024°57'0 0.0
2014-Sep-21 10:23N 37°27' E 024°57'2 2.1
2014-Sep-21 09:28N 37°25' E 024°59'0 0.0
2014-Sep-21 08:28N 37°25' E 024°59'0 0.0
2014-Sep-21 07:29N 37°25' E 024°59'62 7.8
2014-Sep-20 23:32N 37°46' E 023°45'3 3.1
2014-Sep-20 22:33N 37°49' E 023°46'0 0.0
2014-Sep-20 21:33N 37°49' E 023°46'0 0.0
2014-Sep-20 20:33N 37°49' E 023°46'0 0.0
2014-Sep-20 19:30N 37°49' E 023°46'0 0.0
2014-Sep-20 18:33N 37°49' E 023°46'0 0.0
2014-Sep-20 17:30N 37°49' E 023°46'0 0.0
2014-Sep-20 16:31N 37°49' E 023°46'0 0.0
2014-Sep-20 15:34N 37°49' E 023°46'0 0.2
2014-Sep-20 14:33N 37°49' E 023°46'8 8.5
2014-Sep-20 13:34N 37°55' E 023°39'1 0.8
2014-Sep-20 12:34N 37°56' E 023°39'1 1.0
2014-Sep-20 11:34N 37°55' E 023°39'1 1.0
2014-Sep-20 10:34N 37°56' E 023°39'0 0.0
2014-Sep-20 09:34N 37°56' E 023°39'0 0.0
2014-Sep-20 08:34N 37°56' E 023°39'0 0.0
2014-Sep-20 07:34N 37°56' E 023°39'0 0.0
2014-Sep-20 06:33N 37°56' E 023°39'3 3.0
2014-Sep-20 05:34N 37°53' E 023°41'11 9.6
2014-Sep-20 04:26N 37°44' E 023°47'59 8.5
2014-Sep-19 21:32N 37°22' E 024°55'5 4.5
2014-Sep-19 20:29N 37°26' E 024°57'0 0.0
2014-Sep-19 19:32N 37°26' E 024°57'0 0.0
2014-Sep-19 18:32N 37°26' E 024°57'0 0.0
2014-Sep-19 17:31N 37°26' E 024°57'0 0.0
2014-Sep-19 16:29N 37°26' E 024°57'0 0.0
2014-Sep-19 15:33N 37°26' E 024°57'0 0.0
2014-Sep-19 14:30N 37°26' E 024°57'0 0.0
2014-Sep-19 13:30N 37°26' E 024°57'0 0.0
2014-Sep-19 12:32N 37°26' E 024°57'0 0.0
2014-Sep-19 11:32N 37°26' E 024°57'0 0.0
2014-Sep-19 10:30N 37°26' E 024°57'0 0.0
2014-Sep-19 09:32N 37°26' E 024°57'0 0.0
2014-Sep-19 08:33N 37°26' E 024°57'0 0.0
2014-Sep-19 07:33N 37°26' E 024°57'0 0.0
2014-Sep-19 06:31N 37°26' E 024°57'0 0.0
2014-Sep-19 05:33N 37°26' E 024°57'0 0.0
2014-Sep-19 04:31N 37°26' E 024°57'0 0.0
2014-Sep-19 03:33N 37°26' E 024°57'0 0.0
2014-Sep-19 02:33N 37°26' E 024°57'0 0.0
2014-Sep-19 01:33N 37°26' E 024°57'0 0.0
2014-Sep-19 00:31N 37°26' E 024°57'0 0.0
2014-Sep-18 23:30N 37°26' E 024°57'0 0.0
2014-Sep-18 22:30N 37°26' E 024°57'0 0.0
2014-Sep-18 21:32N 37°26' E 024°57'0 0.4
2014-Sep-18 20:30N 37°26' E 024°57'0 0.4
2014-Sep-18 19:32N 37°26' E 024°57'0 0.0
2014-Sep-18 18:33N 37°26' E 024°57'0 0.0
2014-Sep-18 17:31N 37°26' E 024°57'0 0.0
2014-Sep-18 16:33N 37°26' E 024°57'0 0.0
2014-Sep-18 15:29N 37°26' E 024°57'0 0.0
2014-Sep-18 14:33N 37°26' E 024°57'0 0.0
2014-Sep-18 13:32N 37°26' E 024°57'0 0.0
2014-Sep-18 12:33N 37°26' E 024°57'0 0.0
2014-Sep-18 11:33N 37°26' E 024°57'0 0.0
2014-Sep-18 10:33N 37°26' E 024°57'0 0.0
2014-Sep-18 09:31N 37°26' E 024°57'0 0.0
2014-Sep-18 08:30N 37°26' E 024°57'0 0.0
2014-Sep-18 07:33N 37°26' E 024°57'0 0.0
2014-Sep-18 06:30N 37°26' E 024°57'0 0.0
2014-Sep-18 05:24N 37°26' E 024°57'0 0.0
2014-Sep-18 04:33N 37°26' E 024°57'0 0.0
2014-Sep-18 03:33N 37°26' E 024°57'0 0.0
2014-Sep-18 02:33N 37°26' E 024°57'0 0.0
2014-Sep-18 01:31N 37°26' E 024°57'0 0.0
2014-Sep-18 00:33N 37°26' E 024°57'0 0.0
2014-Sep-17 23:33N 37°26' E 024°57'0 0.0
2014-Sep-17 22:33N 37°26' E 024°57'0 0.0
2014-Sep-17 21:33N 37°26' E 024°57'0 0.0
2014-Sep-17 20:19N 37°26' E 024°57'0 0.0
2014-Sep-17 19:23N 37°26' E 024°57'0 0.0
2014-Sep-17 18:34N 37°26' E 024°57'0 0.0
2014-Sep-17 17:31N 37°26' E 024°57'0 0.0
2014-Sep-17 16:33N 37°26' E 024°57'  

Dump ship's entire track history